Weather History for Montevideo, MN

Change the Weather History Date:

Saturday, October 13, 2012

  Actual Average Record
Temperature  
Mean Temperature 53 °F -  
Max Temperature 60 °F 61 °F 85 °F (1956)
Min Temperature 44 °F 39 °F 21 °F (1979)
Degree Days  
Heating Degree Days 12    
Growing Degree Days 3 (Base 50)    
Moisture  
Dew Point 45 °F    
Average Humidity 75    
Maximum Humidity 100    
Minimum Humidity 28    
Precipitation  
Precipitation 0.00 in - - ()
Sea Level Pressure  
Sea Level Pressure 29.75 in    
Wind  
Wind Speed 8 mph (SSW)    
Max Wind Speed 24 mph    
Max Gust Speed 29 mph    
Visibility 8 miles    
Events      
Averages and records for this station are not official NWS values.
T = Trace of Precipitation, MM = Missing Value Source: NWS Daily Summary

Daily Weather History Graph

Daily Weather History Graph

Search for Another Location

Airport:

Trip Planner

Search our weather history database for the weather conditions in past years. The results will help you decide how hot, cold, wet, or windy it might be!

Date:

Astronomy

Oct. 13, 2012 Rise Set
Actual Time 7:36 AM CDT 6:40 PM CDT
Civil Twilight 7:07 AM CDT 7:10 PM CDT
Nautical Twilight 6:33 AM CDT 7:43 PM CDT
Astronomical Twilight 5:59 AM CDT 8:17 PM CDT
Moon 5:23 AM CDT (10/13) 5:27 PM CDT (10/13)
Length of Visible Light 12h 02m
Length of Day
11h 03m
Waning Crescent, 5% of the Moon is Illuminated
Oct 13
Waning Crescent
Oct 15
New
Oct 21
First Quarter
Oct 29
Full
Nov 6
Last Quarter

Hourly Weather History & Observations

Time (CDT) Temp. Windchill Dew Point Humidity Pressure Visibility Wind Dir Wind Speed Gust Speed Precip Events Conditions
12:14 AM 53.6 °F - 21.2 °F 28% 29.91 in 10.0 mi SSW 11.5 mph 20.7 mph N/A   Overcast
12:54 AM 53.6 °F - 26.6 °F 35% 29.89 in 10.0 mi SW 15.0 mph 21.9 mph N/A   Overcast
1:14 AM 53.6 °F - 42.8 °F 67% 29.89 in 10.0 mi WSW 24.2 mph 28.8 mph N/A   Overcast
1:34 AM 51.8 °F - 42.8 °F 71% 29.89 in 10.0 mi WSW 17.3 mph 24.2 mph N/A   Overcast
1:54 AM 51.8 °F - 41.0 °F 67% 29.88 in 10.0 mi SW 13.8 mph 18.4 mph N/A   Overcast
2:14 AM 51.8 °F - 42.8 °F 71% 29.87 in 10.0 mi WSW 13.8 mph - N/A   Overcast
2:34 AM 51.8 °F - 41.0 °F 67% 29.86 in 10.0 mi SW 15.0 mph 19.6 mph N/A   Overcast
2:55 AM 51.8 °F - 41.0 °F 67% 29.84 in 10.0 mi SW 8.1 mph - N/A   Mostly Cloudy
3:14 AM 51.8 °F - 41.0 °F 67% 29.81 in 10.0 mi SSW 8.1 mph - N/A   Scattered Clouds
3:34 AM 50.0 °F - 41.0 °F 71% 29.80 in 10.0 mi SSW 5.8 mph - N/A   Scattered Clouds
3:54 AM 50.0 °F - 41.0 °F 71% 29.81 in 10.0 mi SSW 6.9 mph - N/A   Clear
4:15 AM 48.2 °F - 41.0 °F 76% 29.81 in 10.0 mi SSW 9.2 mph - N/A   Clear
4:34 AM 48.2 °F - 42.8 °F 82% 29.80 in 10.0 mi SSW 8.1 mph - N/A   Clear
4:55 AM 48.2 °F - 42.8 °F 82% 29.80 in 10.0 mi SSW 6.9 mph - N/A   Clear
5:14 AM 48.2 °F - 42.8 °F 82% 29.79 in 10.0 mi SSW 6.9 mph - N/A   Clear
5:34 AM 48.2 °F - 42.8 °F 82% 29.79 in 10.0 mi SSW 5.8 mph - N/A   Clear
5:55 AM 48.2 °F - 42.8 °F 82% 29.78 in 10.0 mi South 4.6 mph - N/A   Clear
6:14 AM 46.4 °F 45.2 °F 42.8 °F 87% 29.77 in 10.0 mi South 3.5 mph - N/A   Clear
6:34 AM 46.4 °F 43.5 °F 42.8 °F 87% 29.77 in 7.0 mi South 5.8 mph - N/A   Clear
6:55 AM 46.4 °F 42.9 °F 42.8 °F 87% 29.77 in 7.0 mi South 6.9 mph - N/A   Clear
7:14 AM 46.4 °F 43.5 °F 42.8 °F 87% 29.76 in 10.0 mi South 5.8 mph - N/A   Clear
7:34 AM 46.4 °F 42.9 °F 42.8 °F 87% 29.75 in 10.0 mi South 6.9 mph - N/A   Clear
7:55 AM 46.4 °F 42.9 °F 42.8 °F 87% 29.74 in 10.0 mi South 6.9 mph - N/A   Scattered Clouds
8:14 AM 48.2 °F - 44.6 °F 87% 29.72 in 7.0 mi SSW 6.9 mph - N/A   Mostly Cloudy
8:55 AM 50.0 °F - 44.6 °F 82% 29.73 in 7.0 mi South 5.8 mph - N/A   Mostly Cloudy
9:34 AM 51.8 °F - 48.2 °F 88% 29.72 in 5.0 mi SW 6.9 mph - N/A   Overcast
9:55 AM 53.6 °F - 48.2 °F 82% 29.72 in 5.0 mi WSW 4.6 mph - N/A   Haze
10:14 AM 53.6 °F - 48.2 °F 82% 29.72 in 5.0 mi WSW 6.9 mph - N/A   Overcast
10:34 AM 53.6 °F - 48.2 °F 82% 29.72 in 5.0 mi SW 5.8 mph - N/A   Haze
10:55 AM 53.6 °F - 48.2 °F 82% 29.72 in 5.0 mi SSW 5.8 mph - N/A   Haze
11:14 AM 53.6 °F - 48.2 °F 82% 29.71 in 5.0 mi SSW 4.6 mph - N/A   Haze
11:34 AM 55.4 °F - 48.2 °F 77% 29.71 in 5.0 mi SW 5.8 mph - N/A   Haze
11:55 AM 55.4 °F - 48.2 °F 77% 29.70 in 5.0 mi South 5.8 mph - N/A   Haze
12:34 PM 57.2 °F - 48.2 °F 72% 29.70 in 7.0 mi South 5.8 mph - N/A   Overcast
12:55 PM 57.2 °F - 48.2 °F 72% 29.70 in 7.0 mi South 3.5 mph - N/A   Overcast
1:14 PM 57.2 °F - 48.2 °F 72% 29.70 in 7.0 mi SW 5.8 mph - N/A   Overcast
1:34 PM 57.2 °F - 48.2 °F 72% 29.69 in 7.0 mi SW 3.5 mph - N/A   Overcast
1:55 PM 57.2 °F - 48.2 °F 72% 29.69 in 7.0 mi SSW 3.5 mph - N/A   Overcast
2:14 PM 59.0 °F - 50.0 °F 72% 29.68 in 7.0 mi South 4.6 mph - N/A   Mostly Cloudy
2:34 PM 59.0 °F - 48.2 °F 67% 29.68 in 7.0 mi SW 3.5 mph - N/A   Mostly Cloudy
2:54 PM 60.8 °F - 48.2 °F 63% 29.67 in 7.0 mi WNW 3.5 mph - N/A   Overcast
3:14 PM 60.8 °F - 48.2 °F 63% 29.67 in 7.0 mi Calm Calm - N/A   Scattered Clouds
3:34 PM 60.8 °F - 48.2 °F 63% 29.67 in 7.0 mi Calm Calm - N/A   Clear
3:54 PM 60.8 °F - 48.2 °F 63% 29.68 in 7.0 mi Calm Calm - N/A   Clear
4:14 PM 60.8 °F - 48.2 °F 63% 29.67 in 7.0 mi Calm Calm - N/A   Clear
4:34 PM 60.8 °F - 48.2 °F 63% 29.67 in 7.0 mi Calm Calm - N/A   Clear
4:54 PM 60.8 °F - 48.2 °F 63% 29.66 in 7.0 mi East 3.5 mph - N/A   Clear
5:14 PM 60.8 °F - 48.2 °F 63% 29.68 in 7.0 mi Calm Calm - N/A   Clear
5:34 PM 60.8 °F - 48.2 °F 63% 29.68 in 7.0 mi Calm Calm - N/A   Clear
5:54 PM 59.0 °F - 48.2 °F 67% 29.68 in 10.0 mi Calm Calm - N/A   Clear
6:14 PM 59.0 °F - 48.2 °F 67% 29.69 in 7.0 mi Calm Calm - N/A   Clear
6:34 PM 57.2 °F - 46.4 °F 67% 29.70 in 7.0 mi Calm Calm - N/A   Clear
7:14 PM 53.6 °F - 46.4 °F 77% 29.72 in 7.0 mi Calm Calm - N/A   Clear
7:34 PM 51.8 °F - 46.4 °F 82% 29.72 in 7.0 mi ENE 5.8 mph - N/A   Clear
7:54 PM 50.0 °F - 46.4 °F 87% 29.72 in 7.0 mi East 4.6 mph - N/A   Clear
8:14 PM 48.2 °F - 44.6 °F 87% 29.74 in 7.0 mi East 3.5 mph - N/A   Clear
9:14 PM 48.2 °F - 44.6 °F 87% 29.76 in 7.0 mi SE 4.6 mph - N/A   Clear
9:34 PM 48.2 °F - 44.6 °F 87% 29.76 in 7.0 mi SE 3.5 mph - N/A   Clear
9:54 PM 48.2 °F - 44.6 °F 87% 29.76 in 7.0 mi South 4.6 mph - N/A   Clear
10:14 PM 48.2 °F - 44.6 °F 87% 29.76 in 7.0 mi Calm Calm - N/A   Clear
10:54 PM 46.4 °F - 44.6 °F 93% 29.76 in 5.0 mi Calm Calm - N/A   Clear
11:34 PM 44.6 °F 43.1 °F 44.6 °F 100% 29.78 in 4.0 mi WNW 3.5 mph - N/A   Clear